Starlink 2555

operational
NORAD ID: 48291 Int'l Des: 2021-036 Owner: SPXS Country: US Constellation: starlink
LEOCIRCULARSTARLINK_TYPE

关于 Starlink 2555

正在加载描述...

实时位置

正在加载3D地球...

即将过境

高度历史

Altitude vs Time

uPlot chart will show altitude changes over time

两行轨道根数

1 48291U 21036R 25304.19256488 .00002867 00000-0 21129-3 0 9994
2 48291 53.0556 302.9602 0001477 86.8267 273.2891 15.06404226248790
Epoch: Oct 31, 2025 • Age: 15 hours

当前状态

高度 547.4 km
速度 7.59 km/s
星下点 22.83°N, 127.15°E
发射日期 Apr 29, 2021
运行时间 4.5 years
类型 internet

技术详情

分类 Payload
质量 260.00 kg
干质量 248.00 kg
总质量 260.00 kg
长度 0.20 m
直径 2.80 m
跨度 9.00 m
形状 Box + pan
制造商 SPXS
平台类型 Starlink
阶段状态 In Orbit
所有者/国家 SPXS/US

大型星座

Loading constellations...